Middletown, RI

11:46 AM EST on February 06, 2016 (GMT -0500)
Newport State

Weather History for KUUU - January, 2013

Change the Weather History Date:

Saturday, January 19, 2013

  Actual Average Record
Temperature  
Mean Temperature 36 °F -  
Max Temperature 45 °F 36 °F 55 °F (1973)
Min Temperature 26 °F 22 °F -1 °F (1983)
Degree Days  
Heating Degree Days 30    
Moisture  
Dew Point 29 °F    
Average Humidity 64    
Maximum Humidity 74    
Minimum Humidity 53    
Precipitation  
Precipitation 0.00 in - - ()
Sea Level Pressure  
Sea Level Pressure 30.17 in    
Wind  
Wind Speed 11 mph (SSW)    
Max Wind Speed 18 mph    
Max Gust Speed 38 mph    
Visibility 10 miles    
Events      
Averages and records for this station are not official NWS values.
T = Trace of Precipitation, MM = Missing Value Source: NWS Daily Summary

Daily Weather History Graph

Daily Weather History Graph

Search for Another Location

Airport or City:

Trip Planner

Search our weather history database for the weather conditions in past years. The results will help you decide how hot, cold, wet, or windy it might be!

Date:

Astronomy

Jan. 19, 2013 Rise Set
Actual Time 7:07 AM EST 4:45 PM EST
Civil Twilight 6:36 AM EST 5:15 PM EST
Nautical Twilight 6:02 AM EST 5:49 PM EST
Astronomical Twilight 5:29 AM EST 6:22 PM EST
Moon 11:10 AM EST (1/19) 12:37 AM EST (1/19)
Length of Visible Light 10h 38m
Length of Day
9h 38m
First Quarter, 57% of the Moon is Illuminated
Jan 19
First Quarter
Jan 26
Full
Feb 3
Last Quarter
Feb 10
New
Feb 17
First Quarter

Hourly Weather History & Observations

Time (EST) Temp. Windchill Dew Point Humidity Pressure Visibility Wind Dir Wind Speed Gust Speed Precip Events Conditions
12:53 AM 26.1 °F 20.5 °F 10.9 °F 53% 30.39 in 10.0 mi SSW 4.6 mph - N/A   Clear
1:53 AM 30.0 °F 21.7 °F 18.0 °F 61% 30.39 in 10.0 mi SW 9.2 mph - N/A   Clear
2:53 AM 32.0 °F 24.2 °F 19.0 °F 59% 30.36 in 10.0 mi SW 9.2 mph 19.6 mph N/A   Overcast
3:53 AM 34.0 °F 25.5 °F 23.0 °F 64% 30.33 in 10.0 mi SSW 11.5 mph 18.4 mph N/A   Mostly Cloudy
4:53 AM 36.0 °F 26.3 °F 26.1 °F 67% 30.31 in 10.0 mi SW 16.1 mph 27.6 mph N/A   Scattered Clouds
5:53 AM 37.0 °F 27.4 °F 26.1 °F 65% 30.28 in 10.0 mi SSW 17.3 mph 27.6 mph N/A   Overcast
6:53 AM 37.9 °F 28.5 °F 27.0 °F 65% 30.27 in 10.0 mi SSW 17.3 mph 27.6 mph N/A   Mostly Cloudy
7:53 AM 39.0 °F 30.6 °F 28.9 °F 67% 30.26 in 10.0 mi SSW 15.0 mph 28.8 mph N/A   Clear
8:53 AM 41.0 °F 32.5 °F 30.0 °F 65% 30.26 in 10.0 mi SSW 17.3 mph 33.4 mph N/A   Partly Cloudy
9:53 AM 42.1 °F 33.9 °F 30.9 °F 65% 30.26 in 10.0 mi SSW 17.3 mph 28.8 mph N/A   Clear
10:53 AM 44.1 °F 36.2 °F 30.9 °F 60% 30.22 in 10.0 mi SSW 18.4 mph 32.2 mph N/A   Clear
11:53 AM 45.0 °F 38.5 °F 30.0 °F 56% 30.17 in 10.0 mi SW 13.8 mph 38.0 mph N/A   Clear
12:53 PM 45.0 °F 37.9 °F 30.0 °F 56% 30.12 in 10.0 mi SSW 16.1 mph 31.1 mph N/A   Clear
1:53 PM 45.0 °F 37.6 °F 30.0 °F 56% 30.09 in 10.0 mi SSW 17.3 mph 34.5 mph N/A   Clear
2:53 PM 45.0 °F 38.5 °F 30.9 °F 58% 30.08 in 10.0 mi SSW 13.8 mph 24.2 mph N/A   Clear
3:53 PM 44.1 °F 37.1 °F 30.9 °F 60% 30.07 in 10.0 mi SW 15.0 mph 24.2 mph N/A   Clear
4:53 PM 43.0 °F 36.8 °F 32.0 °F 65% 30.06 in 10.0 mi SW 11.5 mph 21.9 mph N/A   Clear
5:53 PM 43.0 °F 37.2 °F 33.1 °F 68% 30.06 in 10.0 mi SW 10.4 mph 18.4 mph N/A   Clear
6:53 PM 43.0 °F 38.8 °F 35.1 °F 74% 30.05 in 10.0 mi Variable 6.9 mph - N/A   Clear
7:53 PM 43.0 °F 37.7 °F 35.1 °F 74% 30.03 in 10.0 mi SSW 9.2 mph 18.4 mph N/A   Clear
8:53 PM 44.1 °F 40.8 °F 35.1 °F 71% 30.02 in 10.0 mi Variable 5.8 mph - N/A   Clear
9:53 PM 44.1 °F 40.1 °F 36.0 °F 73% 30.00 in 10.0 mi Variable 6.9 mph - N/A   Clear
10:53 PM 45.0 °F 40.1 °F 36.0 °F 71% 29.97 in 10.0 mi SSW 9.2 mph 18.4 mph N/A   Clear
11:53 PM 44.1 °F 39.0 °F 36.0 °F 73% 29.94 in 10.0 mi SSW 9.2 mph - N/A   Clear